CZ-3C DEB, 40175

Orbit data source: Space-Track

CZ-3C DEB, 40175 is space debris in HEO originally from a launch on Sun, 31 Oct 2010 UTC launched from the Xichang Space Center, China (XSC). Debris objects in space refer to the collection of defunct objects orbiting the Earth. Examples of debris include non-operational satellites, rocket bodies, and fragments generated from explosions, collisions, or faulty payload assembly.

Loading next visibility...
CZ-3C DEB details
Identifier
40175, 2010-057AD
Orbit
HEO
Last TLE update6 months ago
Origin
Flag of CNCASC (CN / PRC)
ManufacturerCALT
MissionSpacecraft
Bus & MotorUnknown
MassUnknown
Launch date (UTC)
2010-10-31 (14 years ago)
Launch vehicleUnknown
Launch site
Xichang Space Center, China (XSC)
Object type
Payload
Rocket body
Debris
Shape & HBRUnknown
Radar Cross SectionMedium (>0.1 m² and <1 m²)

Expand to show TLE details & history

TLE from 6 months ago
0 CZ-3C DEB
1 40175U 10057AD  24214.99491461  .00001858  00000-0  83034-2 0  9998
2 40175  19.5903  84.6819 7076990 217.1463  62.1799  2.43332064 93715
Epoch: 2024-08-01T23:52Z
Definitive object data (Epoch: 2024-08-01T23:52:40.622Z)
Latitude0.00008°
Longitude135.53148°
Altitude20,373.486 km
Speed3.568 km/s
True Right ascension05h 39m 06s
True Declination0° 00' 00"
Sunlit
Object was in daylight at TLE epoch
Visualization TLE readout
Latitude17.33765°
Longitude178.342°
Altitude11,417.566 km
Speed5.262 km/s
Apparent Right ascension07h 55m 36s
Apparent Declination3° 19' 49"
Sunlit
Object is in daylight
Visualization observer readout
Local Sidereal Time17:49:19
Azimuth318.477° NNW
Elevation-37.957°
Doppler factor1
Orbital elements
Apogee altitude33,502.607 km
Perigee altitude448.114 km
Semi-major axis23,353.497 km
Eccentricity0.707699
Inclination19.5903°
RAAN84.6819°
Arg. of periapsis217.1463°
True anomaly142.87065°
Mean anomaly62.1799°
Eccentric anomaly101.86216°
Mean motion0.60816 °/min
BSTAR0.0083034
Orbital period591.95 mins
Loading maneuver chart data...
Loading historical data...
Loading historical data...
Loading historical data...
Loading historical data...
Loading historical data...
Loading historical data...
Loading historical data...

CZ-3C DEB Visibility forecast

Observer location: undefined°, undefined

Span
Click to sort rows by Start time (UTC) header in descending order
Start Az.
Max El. time (UTC)
Max El. Az.
Max El.
End time (UTC)
End Az.
20 mins2025-02-14 00:21:09.935Z162.621° S2025-02-14 00:26:09.935Z130.043° SE16.206°2025-02-14 00:41:09.935Z97.381° ESE
132 mins2025-02-14 11:17:09.935Z266.538° W2025-02-14 12:07:09.935Z259.481° W14.55°2025-02-14 13:29:09.935Z258.243° W
|